Location: Newark
(50.8086°N, 4.3114°E)
Time: 01:56:14
(UTC+00:00)

XW-2D - Pass Details

Date: 29 January 2020
Orbit: 507 x 528 km, 97.5° (Epoch: 21 February)

Event Time Altitude Azimuth Distance (km) Brightness Sun altitude
Rises 17:08:54 0° 183° (S) 2,638 ? -6.7°
Reaches altitude 10° 17:11:05 10° 190° (S) 1,751 ? -7.0°
Maximum altitude 17:14:40 41° 262° (W) 770 ? -7.5°
Drops below altitude 10° 17:18:16 10° 333° (NNW) 1,754 ? -8.1°
Sets 17:20:27 0° 341° (NNW) 2,643 ? -8.4°
